{"data":{"norad_id":56029,"epoch":"2026-09-20T20:02:24.319680Z","epoch_age_seconds":77153,"freshness":"FRESH","line1":"1 56029U 23042AV  26263.83500370 -.00000909  00000+0 -23516-4 0  9998","line2":"2 56029  43.0040  22.8688 0001284 271.0987  88.9718 15.27568239192885","mean_motion":15.27568239,"eccentricity":0.0001284,"inclination_deg":43.004,"raan_deg":22.8688,"arg_perigee_deg":271.0987,"mean_anomaly_deg":88.9718,"bstar":-2.3516e-5,"rev_number":19288,"period_min":94.267474488909,"perigee_km":482.20333211402,"apogee_km":483.96529374718,"semimajor_km":6861.2213129306,"source":"CELESTRAK","updated_at":"2026-09-21T09:00:33.358503Z"}}